{"data":{"norad_id":64567,"intl_designator":"2025-135AR","name":"ARVAKER-2","alt_names":[],"object_type":"PAYLOAD","status":"ACTIVE","operator":null,"country":"NOR","launch_date":"2025-06-23","launch_site_code":"AFWTR","launch_vehicle":null,"mission":null,"orbit_class":"UNKNOWN","rcs_meters":null,"size_class":null,"mass_kg":null,"dimensions":null,"purposes":[],"wikipedia_slug":null,"has_3d_model":false,"image_url":null,"decayed_at":null,"tle_current":{"epoch":"2026-05-25T04:29:25.579104Z","epoch_age_seconds":59151,"freshness":"FRESH","line1":"1 64567U 25135AR  26145.18710161  .00001968  00000+0  19262-3 0  9993","line2":"2 64567  97.7712 259.6046 0002378  65.1068 295.0398 14.93446041 50446","mean_motion":14.93446041,"eccentricity":0.0002378,"inclination_deg":97.7712,"raan_deg":259.6046,"arg_perigee_deg":65.1068,"mean_anomaly_deg":295.0398,"bstar":0.00019262,"rev_number":5044,"period_min":96.421294139009,"perigee_km":585.54391874921,"apogee_km":588.85663315766,"semimajor_km":6965.3372759534,"source":"CELESTRAK","updated_at":"2026-05-25T13:38:04.619304Z"}}}